Other Public Products
Issued by NWS Grand Forks, ND

Home | Current Version | Previous Version | Text Only | Print | Product List | Glossary On
Versions: 1 2 3 4 5 6 7 8 9 10 11 12 13 14 15 16 17 18 19 20 21 22 23 24 25 26 27 28 29 30 31 32 33 34 35 36 37 38 39 40 41 42 43 44 45 46 47 48 49 50
000
FPUS83 KFGF 280631
OPUFGF
PRAIRIE TO PINES WEATHER ROUNDUP
NATIONAL WEATHER SERVICE EASTERN NORTH DAKOTA/GRAND FORKS ND
100 AM CDT THU MAY 28 2015

 **SATELLITE DATA USED TO AUGMENT SKY COVER AT AUTOMATED STATIONS**
 *****  WEATHER ACROSS EASTERN NORTH DAKOTA  *****

CITY           SKY/WX    TMP DP  RH WIND       PRES   REMARKS
GRAND FORKS    CLOUDY    63  50  62 NE6       29.96F
6HR MIN TEMP:  58; 6HR MAX TEMP:  76;

GRAND FORKS AF CLOUDY    61  49  64 E7        29.96F
GRAND CITY NWS   N/A     63 N/A N/A E5          N/A
BUXTON           N/A     65  60  86 CALM        N/A
DEVILS LAKE    CLOUDY    61  54  77 NE5       29.98F
6HR MIN TEMP:  61; 6HR MAX TEMP:  72; 6HR PCP:  0.03;

FARGO          MOCLDY    65  55  70 E9        29.95F
6HR MIN TEMP:  65; 6HR MAX TEMP:  80;

WAHPETON ARPT  MOCLDY    63  52  67 E5        29.98S
$$

 *****  WEATHER ACROSS CENTRAL AND WESTERN NORTH DAKOTA  *****

CITY           SKY/WX    TMP DP  RH WIND       PRES   REMARKS
JAMESTOWN      CLOUDY    62  56  80 CALM      29.97S
6HR MIN TEMP:  62; 6HR MAX TEMP:  75; 6HR PCP:  0.03;

BISMARCK       CLOUDY    60  58  92 E9        29.93F
6HR MIN TEMP:  60; 6HR MAX TEMP:  77; 6HR PCP:  0.03;

MINOT          CLOUDY    60  56  86 SE10      29.94S
6HR MIN TEMP:  60; 6HR MAX TEMP:  73; 6HR PCP:  0.06;

MINOT AFB      DRIZZLE   59  59 100 E8        29.93F
6HR MIN TEMP:  59; 6HR MAX TEMP:  74; 6HR PCP:  0.05;

GARRISON         N/A     60  57  89 E10       29.92F
6HR MIN TEMP:  60; 6HR MAX TEMP:  76; 6HR PCP:  0.27;

WILLISTON      PTCLDY    56  53  90 CALM      29.90F
6HR MIN TEMP:  57; 6HR MAX TEMP:  65; 6HR PCP: TRACE;

DICKINSON      CLOUDY    58  54  86 S9        29.90S
6HR MIN TEMP:  55; 6HR MAX TEMP:  59; 6HR PCP: TRACE;

HETTINGER      MOCLDY    51  50  96 NE5       29.93F
6HR MIN TEMP:  49; 6HR MAX TEMP:  60; 6HR PCP:  0.51;

$$

 *****  OTHER OBSERVATIONS NORTHEAST NORTH DAKOTA  *****

CITY           SKY/WX    TMP DP  RH WIND       PRES   REMARKS
WALHALLA       FAIR      57  41  54 MISG      30.00F
LANGDON        CLOUDY    57  43  58 E6G12     30.03R
CAVALIER       MOCLDY    59  45  58 N5        29.99S
GRAFTON        FAIR      59  46  63 E7        29.98S
CANDO          CLOUDY    59  57  94 E6        30.00F
FORT TOTTEN      N/A     59  55  86 E2        29.95S
ROLLA          CLOUDY    57  54  88 S8        30.01F
RUGBY          NOT AVBL
 ***** THE ABOVE OBSERVATIONS ARE NON NWS ARE NOT QUALITY
        CONTROLLED AND MAY MIS-REPORT RAIN FOR SNOW...
$$

 *****  OTHER OBSERVATIONS SOUTHEAST NORTH DAKOTA *****

CITY           SKY/WX    TMP DP  RH WIND       PRES   REMARKS
COOPERSTOWN    NOT AVBL
VALLEY CITY    MOCLDY    63  57  82 E3        29.96F
OAKES            N/A     64  57  77 SE9       29.98R
GWINNER        NOT AVBL
SHEYENNE NWR     N/A     61  54  77 E5        29.95S
BUFFALO        NOT AVBL
WYNDMERE         N/A     66  55  68 E8          N/A
 ***** THE ABOVE OBSERVATIONS ARE NON NWS ARE NOT QUALITY
       CONTROLLED AND MAY MIS-REPORT RAIN FOR SNOW...
$$

  *****  WEATHER ACROSS NORTHERN MINNESOTA  *****

CITY           SKY/WX    TMP DP  RH WIND       PRES   REMARKS
FLAG ISLAND    NOT AVBL
WARROAD        NOT AVBL
ROSEAU         NOT AVBL
HALLOCK        NOT AVBL
THF RVR FALLS  PTCLDY    59  48  67 E6        30.00F
6HR MIN TEMP:  61; 6HR MAX TEMP:  75;

HALSTAD          N/A     64  52  63 E7          N/A
FOSSTON        NOT AVBL
BAUDETTE       CLEAR     50  45  83 E3        30.03F
6HR MIN TEMP:  49; 6HR MAX TEMP:  70;

WASKISH        NOT AVBL
CROOKSTON      NOT AVBL
$$
  *****  WEATHER ACROSS CENTRAL AND WEST MINNESOTA  *****

CITY           SKY/WX    TMP DP  RH WIND       PRES   REMARKS
BEMIDJI        NOT AVBL
PARK RAPIDS    PTCLDY    60  53  77 CALM      30.02S
6HR MIN TEMP:  59; 6HR MAX TEMP:  80;

WADENA         NOT AVBL
DETROIT LAKES  NOT AVBL
MOORHEAD       NOT AVBL
FERGUS FALLS   NOT AVBL
ELBOW LAKE     NOT AVBL
MORRIS MN      NOT AVBL
STAPLES        NOT AVBL
WHEATON        NOT AVBL
$$
  *****  WEATHER ELSEWHERE ACROSS MINNESOTA  *****

CITY           SKY/WX    TMP DP  RH WIND       PRES   REMARKS
DULUTH         CLEAR     59  46  62 E10       30.07R
6HR MIN TEMP:  59; 6HR MAX TEMP:  79;

INTRNTL FALLS  CLEAR     54  46  74 E5        30.04S
6HR MIN TEMP:  48; 6HR MAX TEMP:  72;

ELY            NOT AVBL
CLOQUET        NOT AVBL
BRAINERD       PTCLDY    55  53  93 S3        30.03S
6HR MIN TEMP:  54; 6HR MAX TEMP:  76;

HIBBING        CLEAR     50  47  89 CALM      30.04S
6HR MIN TEMP:  49; 6HR MAX TEMP:  78;

ALEXANDRIA     PTCLDY    64  53  67 SE5       30.03S
6HR MIN TEMP:  62; 6HR MAX TEMP:  80;

SAINT CLOUD    CLEAR     57  55  93 CALM      30.02S
6HR MIN TEMP:  56; 6HR MAX TEMP:  80;

MINNEAPOLIS    CLEAR     68  56  65 E5        30.03S
6HR MIN TEMP:  67; 6HR MAX TEMP:  83;

$$

  *****  WEATHER ACROSS SOUTH DAKOTA  *****

CITY           SKY/WX    TMP DP  RH WIND       PRES   REMARKS
SIOUX FALLS    PTCLDY    65  50  58 S8        30.03S
6HR MIN TEMP:  65; 6HR MAX TEMP:  79;

BROOKINGS      MOCLDY    66  52  59 S10       30.03S
WATERTOWN      CLOUDY    67  53  61 SE3       30.00F
6HR MIN TEMP:  67; 6HR MAX TEMP:  78;

HURON            N/A    N/A N/A N/A MISG      29.97S
SISSETON         N/A     67  55  65 CALM      29.96F
ABERDEEN       CLOUDY    65  57  75 W16G24    29.99R
6HR MIN TEMP:  64; 6HR MAX TEMP:  79; 6HR PCP:  0.01;

MITCHELL       MOCLDY    67  55  65 S7        29.99S
PIERRE         CLOUDY    63  60  90 S12       29.93F
6HR MIN TEMP:  61; 6HR MAX TEMP:  74; 6HR PCP:  0.16;

MOBRIDGE       CLOUDY    62  60  93 SE16      29.91F
RAPID CITY     PTCLDY    53  52  96 SE3       29.94F
6HR MIN TEMP:  53; 6HR MAX TEMP:  70; 6HR PCP:  0.02;

$$

  *****  SOME WEATHER IN NEARBY STATES *****

CITY           SKY/WX    TMP DP  RH WIND       PRES   REMARKS
GLASGOW MT     CLEAR     58  54  86 SE9       29.88F
6HR MIN TEMP:  58; 6HR MAX TEMP:  69;

GREAT FALLS MT CLOUDY    55  46  71 CALM      29.99S
6HR MIN TEMP:  52; 6HR MAX TEMP:  66;

CHEYENNE WY    MOCLDY    53  52  96 SE9       30.10S
6HR MIN TEMP:  54; 6HR MAX TEMP:  66; 6HR PCP:  0.01;

SCOTTSBLUFF NE CLOUDY    60  54  80 VRB7      30.02R
6HR MIN TEMP:  57; 6HR MAX TEMP:  68; 6HR PCP:  0.01;

OMAHA NE       CLOUDY    65  54  67 SE6       30.07S
6HR MIN TEMP:  65; 6HR MAX TEMP:  81;

DES MOINES IA  MOCLDY    67  58  72 S7        30.11R
6HR MIN TEMP:  67; 6HR MAX TEMP:  81;

DAVENPORT IA   CLEAR     62  57  83 S6        30.15R
6HR MIN TEMP:  62; 6HR MAX TEMP:  77;

CHICAGO IL     CLEAR     60  54  80 S6        30.14R
6HR MIN TEMP:  60; 6HR MAX TEMP:  73;

EAU CLAIRE WI  CLEAR     62  54  74 S5        30.05S
6HR MIN TEMP:  61; 6HR MAX TEMP:  77;

LA CROSSE WI   CLEAR     65  60  84 SE6       30.07S
6HR MIN TEMP:  65; 6HR MAX TEMP:  80;

$$

  *****  SOME NATIONAL WEATHER *****

CITY           SKY/WX    TMP DP  RH WIND       PRES   REMARKS
LA GUARDIA NY  MOCLDY    70  62  76 SE3       30.12S
6HR MIN TEMP:  68; 6HR MAX TEMP:  74; 6HR PCP:  0.02;



USA.gov is the U.S. government's official web portal to all federal, state and local government web resources and services.